Weather History for KLLJ - August, 2013

Change the Weather History Date:

Saturday, August 24, 2013

  Actual Average Record
Temperature  
Mean Temperature 65 °F 64 °F  
Max Temperature 79 °F 82 °F 99 °F (1969)
Min Temperature 50 °F 45 °F 31 °F (1992)
Degree Days  
Heating Degree Days 0 3  
Month to date heating degree days 5 27  
Since 1 June heating degree days 126 213  
Since 1 July heating degree days 5 48  
Cooling Degree Days 0 1  
Month to date cooling degree days 101 78  
Year to date cooling degree days 367 234  
Since 1 June cooling degree days 365 232  
Growing Degree Days 15 (Base 50)    
Moisture  
Dew Point 39 °F    
Average Humidity 47    
Maximum Humidity 62    
Minimum Humidity 31    
Precipitation  
Precipitation 0.02 in 0.02 in 0.30 in (1995)
Month to date precipitation 0.12 0.60  
Year to date precipitation 2.40 7.20  
Sea Level Pressure  
Sea Level Pressure 29.89 in    
Wind  
Wind Speed 3 mph (NNW)    
Max Wind Speed 30 mph    
Max Gust Speed 41 mph    
Visibility 9 miles    
Events Rain , Thunderstorm    
T = Trace of Precipitation, MM = Missing Value Source: NWS Daily Summary

Daily Weather History Graph

Daily Weather History Graph

Search for Another Location

Airport or City:

Trip Planner

Search our weather history database for the weather conditions in past years. The results will help you decide how hot, cold, wet, or windy it might be!

Date:

Astronomy

Aug. 24, 2013 Rise Set
Actual Time 6:50 AM MDT 8:26 PM MDT
Civil Twilight 6:19 AM MDT 8:57 PM MDT
Nautical Twilight 5:42 AM MDT 9:34 PM MDT
Astronomical Twilight 5:02 AM MDT 10:14 PM MDT
Moon 10:10 PM MDT (8/24) 11:06 AM MDT (8/24)
Length of Visible Light 14h 37m
Length of Day
13h 36m
Waning Gibbous, 84% of the Moon is Illuminated
Aug 24
Waning Gibbous
Aug 28
Last Quarter
Sep 5
New
Sep 12
First Quarter
Sep 19
Full

Hourly Weather History & Observations

Time (MDT) Temp. Dew Point Humidity Pressure Visibility Wind Dir Wind Speed Gust Speed Precip Events Conditions
12:55 AM 64.9 °F 34.0 °F 32% 29.77 in 6.0 mi Calm Calm - N/A   Haze
1:55 AM 61.0 °F 34.0 °F 36% 29.78 in 8.0 mi Calm Calm - N/A   Clear
2:55 AM 57.0 °F 33.1 °F 40% 29.79 in 10.0 mi Calm Calm - N/A   Clear
3:55 AM 55.9 °F 28.0 °F 34% 29.79 in 10.0 mi Calm Calm - N/A   Clear
4:55 AM 54.0 °F 30.9 °F 41% 29.81 in 10.0 mi Calm Calm - N/A   Clear
5:55 AM 53.1 °F 28.9 °F 40% 29.83 in 10.0 mi Calm Calm - N/A   Clear
6:55 AM 52.0 °F 28.0 °F 40% 29.86 in 10.0 mi Calm Calm - N/A   Partly Cloudy
7:55 AM 52.0 °F 32.0 °F 47% 29.88 in 10.0 mi Calm Calm - N/A   Partly Cloudy
8:55 AM 55.0 °F 43.0 °F 64% 29.91 in 10.0 mi East 3.5 mph - N/A   Partly Cloudy
9:55 AM 61.0 °F 33.1 °F 35% 29.89 in 10.0 mi Calm Calm - N/A   Clear
10:55 AM 66.0 °F 35.1 °F 32% 29.87 in 10.0 mi Calm Calm - N/A   Clear
11:55 AM 71.1 °F 41.0 °F 34% 29.85 in 10.0 mi North 5.8 mph - N/A   Clear
12:55 PM 75.0 °F 44.1 °F 33% 29.81 in 10.0 mi North 4.6 mph - N/A   Clear
1:55 PM 78.1 °F 39.9 °F 25% 29.77 in 10.0 mi NNE 3.5 mph - N/A Thunderstorm Clear
2:09 PM 78.8 °F 42.8 °F 28% 29.96 in 10.0 mi Calm Calm - N/A Thunderstorm Clear
2:30 PM 77.0 °F 39.2 °F 26% 29.94 in 10.0 mi East 3.5 mph - N/A   Partly Cloudy
2:55 PM 78.1 °F 39.0 °F 25% 29.75 in 10.0 mi NNW 3.5 mph - N/A   Scattered Clouds
3:02 PM 78.8 °F 39.2 °F 24% 29.94 in 10.0 mi West 4.6 mph - N/A Thunderstorm Mostly Cloudy
3:55 PM 75.0 °F 35.1 °F 23% 29.77 in 5.0 mi WSW 24.2 mph 34.5 mph 0.00 in Thunderstorm Haze
4:14 PM 73.4 °F 35.6 °F 25% 29.94 in 7.0 mi NW 21.9 mph 27.6 mph 0.00 in   Scattered Clouds
4:55 PM 73.9 °F 37.0 °F 26% 29.80 in 6.0 mi Calm Calm - 0.00 in   Haze
5:55 PM 71.1 °F 39.9 °F 32% 29.82 in 7.0 mi NNE 12.7 mph - N/A   Partly Cloudy
6:03 PM 71.6 °F 39.2 °F 31% 29.97 in 7.0 mi NNE 10.4 mph - N/A   Partly Cloudy
6:32 PM 66.2 °F 42.8 °F 43% 30.05 in 6.0 mi WSW 17.3 mph 25.3 mph 0.01 in Rain , Thunderstorm Light Rain
6:47 PM 68.0 °F 41.0 °F 37% 30.06 in 10.0 mi SW 12.7 mph 29.9 mph 0.01 in Rain Light Rain
6:55 PM 66.9 °F 42.1 °F 40% 29.91 in 9.0 mi Variable 3.5 mph - 0.01 in Rain Light Rain
7:55 PM 62.1 °F 46.9 °F 58% 29.93 in 10.0 mi WNW 3.5 mph - 0.01 in   Partly Cloudy
8:55 PM 63.0 °F 45.0 °F 52% 29.95 in 10.0 mi Calm Calm - 0.00 in   Overcast
9:55 PM 59.0 °F 46.9 °F 64% 29.95 in 10.0 mi NNW 3.5 mph - N/A   Partly Cloudy
10:55 PM 60.1 °F 46.0 °F 60% 29.94 in 10.0 mi Calm Calm - 0.00 in Rain Light Rain
11:32 PM 57.2 °F 46.4 °F 67% 30.12 in 10.0 mi WNW 8.1 mph - 0.00 in Thunderstorm Mostly Cloudy
11:47 PM 59.0 °F 46.4 °F 63% 30.12 in 10.0 mi NNE 5.8 mph - 0.00 in   Overcast
11:55 PM 57.9 °F 46.9 °F 67% 29.95 in 10.0 mi ENE 8.1 mph - 0.00 in Rain Light Rain